Location: Diati
(11.8376°N, 2.5966°E)
Time: 17:03:45
(UTC+00:00)

Cosmos 1844 - Pass Details

Date: 21 September 2020
Orbit: 824 x 866 km, 70.9° (Epoch: 19 October)

Event Time Altitude Azimuth Distance (km) Brightness Sun altitude
Rises 18:34:02 0° 196° (SSW) 3,432 7.0 -12.6°
Reaches altitude 10° 18:36:30 10° 196° (SSW) 2,492 6.3 -13.2°
Maximum altitude 18:42:15 89° 283° (WNW) 859 3.7 -14.6°
Drops below altitude 10° 18:47:56 10° 16° (NNE) 2,469 6.0 -16.0°
Sets 18:50:22 0° 16° (NNE) 3,398 6.7 -16.5°
